Location: Zapote
(9.9191°N, 84.0597°W)
Time: 09:44:27
(UTC-06:00)

SR - Visible Passes

Search period start: 26 February 2021 00:00
Search period end: 08 March 2021 00:00
Orbit: 573 x 882 km, 66.7° (Epoch: 25 February)

Date Brightness Start Highest point End Pass type
(mag) Time Alt. Az. Time Alt. Az. Time Alt. Az.
26 Feb ? 18:44:13 10° SSW 18:48:45 69° WNW 18:53:43 10° NNE visible
27 Feb ? 05:23:21 10° N 05:28:50 43° ENE 05:33:59 10° SE visible
27 Feb ? 19:40:16 10° WNW 19:41:13 11° WNW 19:42:12 10° NW visible
28 Feb ? 04:35:01 10° NNE 04:38:56 18° ENE 04:42:42 10° ESE visible
28 Feb ? 18:47:17 10° SW 18:51:16 28° WNW 18:55:32 10° N visible
01 Mar ? 05:25:32 10° NNW 05:31:19 86° WSW 05:36:43 10° SSE visible
02 Mar ? 04:36:11 10° N 04:41:34 39° ENE 04:46:36 10° SE visible
02 Mar ? 18:52:08 10° W 18:53:55 12° WNW 18:55:45 10° NW visible
03 Mar ? 03:48:03 10° NNE 03:51:39 17° ENE 03:55:07 10° ESE visible
03 Mar ? 17:59:51 10° SW 18:03:57 31° WNW 18:08:25 10° N visible
04 Mar ? 04:38:17 10° NNW 04:44:03 87° ENE 04:49:26 10° SSE visible
05 Mar ? 03:49:02 10° N 03:54:17 36° ENE 03:59:13 10° SE visible
05 Mar ? 18:04:17 10° W 18:06:36 13° WNW 18:08:59 10° NW visible
06 Mar ? 03:02:58 14° NE 03:04:21 15° ENE 03:07:30 10° E visible
06 Mar ? 04:42:32 17° NW 04:46:25 41° WSW 04:51:24 10° S visible
07 Mar ? 03:56:24 75° NNE 03:56:47 81° ENE 04:02:07 10° SSE visible
